STARLINK-35193

Last updated on Mon Oct 20 2025 00:02:08 GMT+0000 (Coordinated Universal Time)

1 65889U 25224H 25292.25002315 -.01213874 00000+0 -53907-2 0 9992 2 65889 53.1510 313.3846 0000978 88.6484 87.2251 15.86105104 3136
UTC large
Height (km)
Speed (km/s)
/
Latitude / Longitude
Inclination (degrees)
Orbital Period (minutes)
Azimuth
Elevation
Range (km)
Doppler Factor

Next 0 passes for location: London (51.5072 / 0.1276)

Sorry there are no passes over London.